Regional Weather Roundup
Issued by NWS Boston, MA

Current Version | Previous Version | Graphics & Text | Print | Product List | Glossary On
Versions: 1 2 3 4 5 6 7 8 9 10 11 12 13 14 15 16 17 18 19 20 21 22 23 24 25 26 27 28 29 30 31 32 33 34 35 36 37 38 39 40 41 42 43 44 45 46 47 48 49 50
000
ASUS41 KBOX 040904
RWRBOX

REGIONAL WEATHER ROUNDUP
NATIONAL WEATHER SERVICE BOSTON/NORTON MA
500 AM EDT SAT APR 04 2020

NOTE:  "FAIR" INDICATES FEW OR NO CLOUDS BELOW 12,000 FEET WITH NO
SIGNIFICANT WEATHER AND/OR OBSTRUCTIONS TO VISIBILITY.

MAZALL-041000-
EASTERN MASSACHUSETTS

CITY           SKY/WX    TMP DP  RH WIND       PRES   REMARKS
BOSTON         CLOUDY    40  37  89 NE24G33   29.95S FOG     WCI  29
BEVERLY        CLOUDY    41  37  86 NE13G24   29.95S
LAWRENCE       CLOUDY    40  38  93 NE14      29.98S
BEDFORD        CLOUDY    41  38  89 NE14      29.95R
BLUE HILL        N/A     38  37  97 NE23G38   29.91R WCI  27
NORWOOD        CLOUDY    42  38  85 NE12G18   29.95R FOG
MARSHFIELD     CLOUDY    43  39  87 NE13G25   29.93R
PLYMOUTH       CLOUDY    41  38  89 NE17G31   29.90R
TAUNTON        LGT RAIN  40  38  93 NE8G21    29.91S FOG
NEW BEDFORD    CLOUDY    40  40 100 NE13G31   29.89R FOG
$$

MAZALL-041000-
CAPE COD AND THE ISLANDS

CITY           SKY/WX    TMP DP  RH WIND       PRES   REMARKS
FALMOUTH       CLOUDY    41  39  93 NE21G35   29.87R WCI  32
HYANNIS        CLOUDY    44  39  82 NE17G28   29.84S
CHATHAM        CLOUDY    43  38  82 NE16G25   29.87R
PROVINCETOWN   CLOUDY    42  39  89 NE25G32   29.92R
NANTUCKET      LGT RAIN  42  39  89 NE22G32   29.82R
MARTHAS VNYRD  CLOUDY    43  40  89 NE21G31   29.85R
$$

MAZALL-041000-
CENTRAL AND WESTERN MASSACHUSETTS

CITY           SKY/WX    TMP DP  RH WIND       PRES   REMARKS
WORCESTER      CLOUDY    39  37  92 NE13G21   29.92R FOG     WCI  31
FITCHBURG      CLOUDY    41  38  89 N9        29.98R FOG
ORANGE         CLOUDY    43  39  86 N6        29.97R
SPRINGFIELD    CLOUDY    44  39  83 NE13      29.94R
WESTFIELD      CLOUDY    45  39  79 N12       29.94R
NORTH ADAMS    CLOUDY    45  38  76 E3        29.96R
PITTSFIELD     CLOUDY    43  38  82 NE6       29.92R
$$

RIZALL-041000-
RHODE ISLAND

CITY           SKY/WX    TMP DP  RH WIND       PRES   REMARKS
PROVIDENCE     LGT RAIN  41  39  93 NE16G26   29.92R FOG
NEWPORT        CLOUDY    42  38  85 NE20G32   29.88R FOG
BLOCK ISLAND   CLOUDY    42  39  89 NE18G26   29.87R
SMITHFIELD     LGT RAIN  40  39  97 NE15G23   29.92R FOG     WCI  32
WESTERLY       CLOUDY    45  37  73 NE16G26   29.89R
$$

CTZALL-041000-
CONNECTICUT

CITY           SKY/WX    TMP DP  RH WIND       PRES   REMARKS
BRADLEY INTL   CLOUDY    45  40  82 NE16      29.94R
HARTFORD       CLOUDY    46  40  79 N10       29.93R
BRIDGEPORT     CLOUDY    48  40  73 NE12      29.90R
DANBURY        CLOUDY    46  39  76 NE9G18    29.92R
GROTON         CLOUDY    43  38  82 NE18G26   29.88R
NEW HAVEN      CLOUDY    48  39  71 NE17G23   29.90R
CHESTER        CLOUDY    45  39  81 NE14      29.89R
MERIDEN        CLOUDY    45  39  79 NE8G17    29.92R
WILLIMANTIC    CLOUDY    43  38  82 NE13G24   29.92R
OXFORD         CLOUDY    43  39  87 NE14G23   29.91R
$$

MEZ002-015-021-024-NHZ003-005-008-011-012-014-VTZ005-008-041000-
NORTHERN NEW ENGLAND

CITY           SKY/WX    TMP DP  RH WIND       PRES   REMARKS
PORTLAND ME    CLOUDY    40  33  76 N10       30.01S
BANGOR ME      CLOUDY    36  29  75 N14       30.05R WCI  27
CONCORD NH     CLOUDY    40  34  79 NE10G18   30.00R
MANCHESTER NH  CLOUDY    42  37  82 NE10      29.98R
NASHUA NH      CLOUDY    41  41 100 NE7       29.99R
PORTSMOUTH NH  CLOUDY    41  36  82 N8        29.98R
JAFFREY NH     CLOUDY    40  39  97 CALM      29.96R
KEENE NH       CLOUDY    42  38  85 VRB3      29.99R
BURLINGTON VT  FAIR      39  35  86 W3        29.99S
MT. WASHINGTON FOG       25  25 100 NE10        N/A  VSB 1/16WCI  15
$$

NYZ052-076-041000-
EASTERN NEW YORK

CITY           SKY/WX    TMP DP  RH WIND       PRES   REMARKS
ALBANY         CLOUDY    47  40  76 N5        29.97R
NEW YORK CITY  CLOUDY    50  40  68 NE15      29.90R
$$

ANZALL-041000-
MARINE OBSERVATIONS

STATION/POSITION TIME  TEMP    WIND        PRES    VSBY  WAVE
                       AIR SEA DIR/SP/G                  HT/PER
                 (UTC) (F)     (DEG/KT/KT) (MB)    (MI)  (FT/S)
BOSTON BUOY      0850   41 43   30/ 25/ 33 1012.7R        15/10
BUZZARDS BAY     0800           30/ 31/ 36 1010.1R
NANTUCKET SOUND  0840                        N/A           4/ 5
MASS BAY-STELLWA 0804   41 42   60/ 25/ 31 1011.7R  1 7/8 17/11
ISLE OF SHOALS   0800   41      30/ 23/ 26 1014.2R
S OF BLOCK IS    0830      43                N/A           8/11
$$

......................KEY.........................
  SKY/WX - SKY CONDITION/PRESENT WEATHER
  TMP    - TEMPERATURE IN FAHRENHEIT
  DWPT   - DEWPOINT IN FAHRENHEIT
  RH     - RELATIVE HUMIDITY IN PERCENT
  WIND   - DIRECTION AND SPEED IN MPH
  PRES   - MEAN SEA LEVEL PRESSURE IN INCHES OF HG
  WCI    - WIND CHILL INDEX
  VSB    - VISIBILITY IN MILES
  HX     - HEAT INDEX
  TC     - TEMPERATURE IN CELSIUS
  VRB    - VARIABLE WIND DIRECTION
  N/A    - NOT AVAILABLE




USA.gov is the U.S. government's official web portal to all federal, state and local government web resources and services.